User: anonymous   Login
Location: Unspecified
(0.0000°N, 0.0000°E)
Time: 20:03:56
(UTC+00:00)
Language:

ETS 8 - Orbit

View from above orbital plane
View from above orbital plane
View from above satellite
View from above satellite

Ground track
Ground track

The orbit data is extracted from the following two-line orbital elements,

1 29656U 06059A   17262.18128821 -.00000223  00000-0  00000+0 0  9994
2 29656   5.7622  58.7037 0007757 170.9909 189.2366  0.99009249 39394
Epoch (UTC): 19 September 2017 04:21:03
Eccentricity: 0.0007757
inclination: 5.7622°
perigee height: 36111 km
apogee height: 36177 km
right ascension of ascending node: 58.7037°
argument of perigee: 170.9909°
revolutions per day: 0.99009249
mean anomaly at epoch: 189.2366°
orbit number at epoch: 3939

The dashed part of the orbit path shows where the satellite is in the earth's shadow,  

DLR